Welcome to the New NWS' Forecast!
Most changes are behind the scenes, but click here for differences you might notice.

Regional Weather Roundup (RWR)

Issued by Little Rock, AR (LZK)

                            
165 
ASUS44 KLZK 170905
RWRLZK

WEATHER ROUNDUP FOR ARKANSAS
NATIONAL WEATHER SERVICE LITTLE ROCK AR
400 AM CDT THU AUG 17 2017

NOTE: "FAIR" INDICATES FEW OR NO CLOUDS BELOW 12,000 FEET WITH NO
SIGNIFICANT WEATHER AND/OR OBSTRUCTIONS TO VISIBILITY.

ARZ001-003-010-029-171000-
NORTHWEST ARKANSAS
  
CITY           SKY/WX    TMP DP  RH WIND       PRES   REMARKS
FAYETTEVILLE   LGT RAIN  68  68 100 NW3       29.94F                  
FORT SMITH     LGT RAIN  73  72  96 CALM      29.91S                  
HARRISON       RAIN      69  67  93 W10       29.95F                  
BENTONVILLE    CLOUDY    68  64  88 S7        29.95R                  
ROGERS         LGT RAIN  68  67  96 S6        29.95F                  
SILOAM SPGS    CLOUDY    68  64  88 SE9       29.93F                  
HIGHFILL       LGT RAIN  69  69 100 S7        29.94F                  
$$

ARZ004-005-016-171000-
NORTH CENTRAL ARKANSAS
  
CITY           SKY/WX    TMP DP  RH WIND       PRES   REMARKS
BATESVILLE     CLOUDY    70  66  88 CALM      29.97R                  
FLIPPIN        CLOUDY    70  63  78 CALM      29.93R                  
MTN HOME       CLOUDY    68  68 100 SW3       29.94S                  
$$

ARZ040-041-171000-
WEST CENTRAL ARKANSAS
  
CITY           SKY/WX    TMP DP  RH WIND       PRES   REMARKS
MENA           CLOUDY    81  81 100 SW5       29.93F HX  91           
MOUNT IDA      LGT RAIN  82  76  81 SW8       29.91S HX  89           
$$

ARZ009-017-025-026-028-171000-
NORTHEAST ARKANSAS
  
CITY           SKY/WX    TMP DP  RH WIND       PRES   REMARKS
JONESBORO      PTCLDY    77  76  96 SW14      29.92F                  
NEWPORT        PTCLDY    77  75  93 SW10      29.93S                  
WALNUT RIDGE   MOCLDY    79  73  83 SW12      29.92R                  
BLYTHEVILLE    CLEAR     76  74  93 SW9       29.94R                  
$$

ARZ022-023-033-042-044-171000-
CENTRAL ARKANSAS
  
CITY           SKY/WX    TMP DP  RH WIND       PRES   REMARKS
LITTLE ROCK    CLOUDY    77  76  96 S12       29.94F                  
N LITTLE ROCK    N/A     77  75  92 SW8       29.93F                  
JACKSONVILLE   CLOUDY    78  77  98 S10       29.93F                  
CONWAY           N/A     79  77  94 S7        29.90F                  
SEARCY           N/A    N/A N/A N/A MISG        N/A                   
HOT SPRINGS    CLOUDY    81  78  91 SW9       29.94F HX  89           
RUSSELLVILLE   CLOUDY    79  76  90 CALM      29.90R                  
CLINTON        CLOUDY    73  68  83 CALM      29.95S                  
$$

ARZ036-171000-
EAST ARKANSAS
  
CITY           SKY/WX    TMP DP  RH WIND       PRES   REMARKS
WEST MEMPHIS   CLEAR     75  75 100 S13       29.93F                  
$$

ARZ050-053-066-070-073-171000-
SOUTHWEST ARKANSAS
  
CITY           SKY/WX    TMP DP  RH WIND       PRES   REMARKS
ARKADELPHIA    CLOUDY    77  76  96 S3        29.94F                  
CAMDEN         CLOUDY    77  75  94 S7        29.95S                  
TEXARKANA      CLOUDY    80  77  90 S13       29.95S HX  87           
EL DORADO      CLOUDY    77  76  96 S8        29.98S                  
DE QUEEN       CLOUDY    81  79  94 SW8       29.90F HX  90           
$$

ARZ056-057-069-171000-
SOUTHEAST ARKANSAS
  
CITY           SKY/WX    TMP DP  RH WIND       PRES   REMARKS
PINE BLUFF     MOCLDY    77  75  93 SW9       29.96S                  
MONTICELLO     CLOUDY    79  76  90 SW10      29.98F                  

$$